Home > Weather > Schwerte > Past weeks

Flag for Germany Past Weather in Schwerte, North Rhine-Westphalia, Germany — Yesterday and Last 2 Weeks

Now
73 °F

Sunny.


Feels Like: 77 °F
Forecast: 66 / 87 °F
Wind: 12 mph from South

Location: Dortmund / Wickede

Current Time: Aug 26, 2016 at 8:56:14 AM

Latest Report: Aug 26, 2016 at 7:50 AM


Visibility: 10 mi

Pressure: 29.98 "Hg

Humidity: 47%

Dew Point: 52 °F

Location of SchwerteLocation

Past Weather in Schwerte — Graph

°F

Schwerte Temperature Yesterday

Maximum temperature yesterday: 91 °F (at 3:50 PM)
Minimum temperature yesterday: 63 °F (at 6:20 AM)
Average temperature yesterday: 81 °F

High & Low Weather Summary for the Past Weeks

 TemperatureHumidityPressure
High91 °F (Aug 25, 3:50 PM)94% (Aug 12, 6:20 AM)30.36 "Hg (Aug 12, 6:20 AM)
Low46 °F (Aug 11, 7:20 AM)16% (Aug 25, 3:50 PM)29.80 "Hg (Aug 18, 2:50 PM)
Average67 °F59%30.09 "Hg
* Reported Aug 11 7:20 AM — Aug 26 7:20 AM, Schwerte, Weather by CustomWeather, © 2016

Note: Actual official high and low records may vary slightly from our data, if they occured in-between our weather recording intervals... More about our weather records

Advertising

Schwerte Weather History for the Previous 24 Hours

Scroll right to see more
 ConditionsComfort  
Time TempWeatherWind HumidityBarometerVisibility
7:20 AM
Fri, Aug 26
72 °FClear.13 mph50%29.98 "Hg10 mi
6:50 AM70 °FClear.12 mph50%29.98 "Hg10 mi
6:20 AM70 °FClear.12 mph53%29.98 "Hg10 mi
5:50 AM70 °FClear.10 mph53%29.98 "Hg10 mi
5:20 AM70 °FClear.10 mph53%29.98 "Hg10 mi
9:50 PM
Thu, Aug 25
75 °FClear.2 mph39%29.98 "Hg10 mi
9:20 PM79 °FSunny.5 mph32%29.98 "Hg10 mi
8:50 PM79 °FSunny.6 mph32%29.98 "Hg10 mi
8:20 PM84 °FSunny.3 mph25%29.98 "Hg10 mi
7:50 PM84 °FSunny.6 mph27%29.98 "Hg10 mi
7:20 PM88 °FPassing clouds.8 mph22%29.95 "HgN/A
6:50 PM90 °FSunny.8 mph20%29.98 "Hg10 mi
6:20 PM90 °FSunny.8 mph18%29.98 "Hg10 mi
5:50 PM91 °FSunny.8 mph16%29.98 "Hg10 mi
5:20 PM91 °FPassing clouds.8 mph18%29.98 "HgN/A
4:50 PM91 °FPassing clouds.8 mph18%29.98 "HgN/A
4:20 PM91 °FPassing clouds.7 mph18%30.01 "HgN/A
3:50 PM91 °FPassing clouds.8 mph16%30.01 "HgN/A
3:20 PM90 °FPassing clouds.7 mph18%30.01 "HgN/A
2:50 PM90 °FPassing clouds.5 mph18%30.01 "HgN/A
2:20 PM88 °FPassing clouds.5 mph21%30.04 "HgN/A
1:50 PM88 °FPassing clouds.5 mph22%30.04 "HgN/A
1:20 PM88 °FPassing clouds.8 mph22%30.04 "HgN/A
12:50 PM86 °FPassing clouds.9 mph27%30.04 "HgN/A
12:20 PM86 °FSunny.10 mph25%30.04 "Hg10 mi
11:50 AM84 °FPassing clouds.12 mph29%30.04 "HgN/A
11:20 AM84 °FPassing clouds.10 mph31%30.07 "HgN/A
10:50 AM81 °FPassing clouds.13 mph37%30.07 "HgN/A
10:20 AM81 °FPassing clouds.7 mph39%30.07 "HgN/A
9:50 AM79 °FSunny.3 mph42%30.07 "Hg10 mi
9:20 AM73 °FPassing clouds.5 mph53%30.09 "HgN/A
8:50 AM72 °FPassing clouds.5 mph61%30.07 "HgN/A
8:20 AM70 °FSunny.5 mph64%30.09 "Hg10 mi
Weather by CustomWeather, © 2016

See weather overviewHow to use our weather pages